User: anonymous   Login
Location: Asheville, NC
(35.6000°N, 82.5500°W)
Time: 10:14:32
(UTC-04:00)
Language:

XW-2F - Orbit

View from above orbital plane
View from above orbital plane
View from above satellite
View from above satellite

Ground track
Ground track

The orbit data is extracted from the following two-line orbital elements,

1 40910U 15049M   18263.22670769  .00000858  00000-0  47029-4 0  9999
2 40910  97.4601 266.1719 0016492  56.9163 303.3651 15.16727872165860
Epoch (UTC): 20 September 2018 05:26:27
Eccentricity: 0.0016492
inclination: 97.4601°
perigee height: 504 km
apogee height: 527 km
right ascension of ascending node: 266.1719°
argument of perigee: 56.9163°
revolutions per day: 15.16727872
mean anomaly at epoch: 303.3651°
orbit number at epoch: 16586

The dashed part of the orbit path shows where the satellite is in the earth's shadow,  

DLR